Location: *
(46.4833°N, 7.6667°E)
Time: 06:17:18
(UTC+00:00)

Cosmos 1833 - Pass Details

Date: 27 February 2020
Orbit: 835 x 863 km, 70.9° (Epoch: 30 March)

Event Time Altitude Azimuth Distance (km) Brightness Sun altitude
Rises 17:29:56 0° 334° (NNW) 3,453 7.6 -4.0°
Reaches altitude 10° 17:32:26 10° 336° (NNW) 2,510 6.9 -4.4°
Maximum altitude 17:38:13 74° 62° (ENE) 895 4.2 -5.4°
Drops below altitude 10° 17:43:55 10° 147° (SSE) 2,479 6.4 -6.4°
Sets 17:46:21 0° 150° (SSE) 3,407 7.1 -6.8°
